Regional Weather Roundup
Issued by NWS

Home | Current Version | Previous Version | Text Only | Print | Product List | Glossary Off
Versions: 1 2 3 4 5 6 7 8 9 10 11 12 13 14 15 16 17 18 19 20 21 22 23 24 25 26 27 28 29 30 31 32 33 34 35 36 37 38 39 40 41 42 43 44 45 46 47 48 49 50

000
ASUS45 KABQ 050301
RWRNM
NEW MEXICO REGIONAL WEATHER ROUNDUP
NATIONAL WEATHER SERVICE ALBUQUERQUE NM
900 PM MDT WED MAY 04 2016

NOTE: "FAIR" MEANS FEW OR NO CLOUDS BELOW 12,000 FEET AGL WITH NO
       SIGNIFICANT WEATHER OR OBSTRUCTIONS TO VISION.

      THIS PRODUCT IS RELEASED AS TWO VERSIONS.  ONE VERSION NEAR
      THE TOP OF THE HOUR CONTAINING PRELIMINARY DATA FROM ALBUQUERQUE
      AND OTHER STATIONS.  A FINAL VERSION WITH ADDITIONAL DATA IS
      ISSUED ABOUT 10 MINUTES AFTER THE HOUR.

NMZ501-503-504-510>518-050400-
NORTHWEST PLATEAU/NORTHCENTRAL MOUNTAINS

CITY           SKY/WX    TMP DP  RH WIND       PRES   REMARKS
FARMINGTON     FAIR      69  19  15 SE7       30.11R
SANTA FE       FAIR      61  19  19 S7        30.22R
TAOS           FAIR      55  21  26 E9        30.26R
ANGEL FIRE     FAIR      42  27  55 SW5       30.34R

$$
NMZ402-403-502-505>509-050400-
WESTCENTRAL MOUNTAINS/SOUTHWEST MOUNTAINS

CITY           SKY/WX    TMP DP  RH WIND       PRES   REMARKS
GALLUP         FAIR      59  31  34 SE7       30.16R
GRANTS         FAIR      57  26  30 S7        30.22R
SILVER CITY      N/A     66  21  18 E9        30.17S

$$
NMZ407-409-411-412-050400-
SOUTHERN DESERTS

CITY           SKY/WX    TMP DP  RH WIND       PRES   REMARKS
LORDSBURG      FAIR      72  25  17 E9        30.05R
DEMING         FAIR      69  23  17 E8        30.09R
HOLLOMAN AFB   FAIR      72  20  14 SE6       30.10R
ALAMOGORDO     FAIR      72  18  13 S7        30.12R
T OR C         FAIR      73  22  14 S5        30.12R

$$
NMZ519>523-050400-
CENTRAL VALLEYS/CENTRAL HIGHLANDS

CITY           SKY/WX    TMP DP  RH WIND       PRES   REMARKS
ALBUQUERQUE    FAIR      69  22  16 SE6       30.16R
DOUBLE EAGLE   CLEAR     55  25  30 CALM      30.19S
CLINES CORNERS FAIR      54  21  27 S10       30.27R
BELEN          FAIR      63  17  16 S3        30.15S
SOCORRO        NOT AVBL

$$
NMZ524>526-539-540-050400-
SOUTHCENTRAL MOUNTAINS

CITY           SKY/WX    TMP DP  RH WIND       PRES   REMARKS
RUIDOSO        NOT AVBL

$$
NMZ527>531-050400-
NORTHEAST HIGHLANDS/NORTHEAST PLAINS

CITY           SKY/WX    TMP DP  RH WIND       PRES   REMARKS
LAS VEGAS      FAIR      51  26  37 S12       30.26R
RATON          FAIR      57  29  34 SW9       30.21R
CLAYTON        FAIR      56  41  57 S7        30.16R

$$
NMZ532>537-050400-
EASTCENTRAL PLAINS

CITY           SKY/WX    TMP DP  RH WIND       PRES   REMARKS
TUCUMCARI      FAIR      65  31  28 S6        30.11S
CANNON AFB     CLEAR     63  33  32 E8        30.15R
CLOVIS AIRPORT FAIR      61  36  39 E6        30.17R

$$
NMZ028-029-538-050400-
SOUTHEAST PLAINS

CITY           SKY/WX    TMP DP  RH WIND       PRES   REMARKS
ROSWELL        FAIR      62  24  23 S5        30.12R
ARTESIA        FAIR      68  25  19 SW5       30.12R HAZE
CARLSBAD       FAIR      63  25  23 SW7       30.10R
HOBBS            N/A     68  27  21 E6        30.14R


$$



USA.gov is the U.S. government's official web portal to all federal, state and local government web resources and services.